RFR7149 LXGB-LMML

Flight info

Callsign RFR7149
Flight time 3h 38m
Altitude 26000
Route GOSOS T100 SOTAX RISEP ETOIL XATOS IBREP SENTI UPLIT M732 GZO
Aircraft B350/L-SDE3/LBA

Departure

Time 2026-04-27 10:02
Airport Gibraltar Airport (LXGB)

Arrival

Time 2026-04-27 13:41
Airport Malta International Airport (LMML)
Time Latitude Longitude Altitude Speed Heading
2026-04-27 09:52 36.14969 -5.34776 13 ft 0 kts 197°
2026-04-27 09:57 36.14968 -5.34776 13 ft 1 kts 193°
2026-04-27 09:58 36.14961 -5.34773 13 ft 0 kts 125°
2026-04-27 09:58 36.14969 -5.34762 13 ft 4 kts 353°
2026-04-27 09:58 36.15014 -5.34771 13 ft 7 kts 347°
2026-04-27 09:58 36.15040 -5.34778 15 ft 0 kts 360°
2026-04-27 10:00 36.15078 -5.34780 17 ft 10 kts 349°
2026-04-27 10:00 36.15130 -5.34878 17 ft 24 kts 265°
2026-04-27 10:00 36.15118 -5.35128 18 ft 34 kts 269°
2026-04-27 10:00 36.15109 -5.35439 17 ft 37 kts 268°
2026-04-27 10:01 36.15096 -5.35755 15 ft 35 kts 264°
2026-04-27 10:01 36.15066 -5.35911 15 ft 15 kts 269°
2026-04-27 10:01 36.15088 -5.35953 15 ft 3 kts 24°
2026-04-27 10:01 36.15091 -5.35951 15 ft 0 kts 30°
2026-04-27 10:02 36.15095 -5.35910 15 ft 13 kts 111°
2026-04-27 10:02 36.15099 -5.35598 16 ft 79 kts 87°
2026-04-27 10:02 36.15148 -5.34629 268 ft 132 kts 83°
2026-04-27 10:02 36.15094 -5.33381 721 ft 161 kts 99°
2026-04-27 10:03 36.14842 -5.31914 1057 ft 181 kts 99°
2026-04-27 10:03 36.14653 -5.30396 1762 ft 178 kts 97°
2026-04-27 10:03 36.14500 -5.28884 2437 ft 177 kts 97°
2026-04-27 10:03 36.14344 -5.27341 2838 ft 184 kts 97°
2026-04-27 10:04 36.14188 -5.25764 3283 ft 185 kts 97°
2026-04-27 10:04 36.14027 -5.24177 3726 ft 187 kts 97°
2026-04-27 10:04 36.13866 -5.22578 4187 ft 187 kts 98°
2026-04-27 10:04 36.13705 -5.20980 4618 ft 189 kts 98°
2026-04-27 10:05 36.13540 -5.19363 5027 ft 192 kts 98°
2026-04-27 10:05 36.13371 -5.17696 5400 ft 197 kts 99°
2026-04-27 10:05 36.13198 -5.15998 5772 ft 202 kts 99°
2026-04-27 10:05 36.13022 -5.14267 6162 ft 205 kts 101°
2026-04-27 10:06 36.12843 -5.12512 6496 ft 210 kts 101°
2026-04-27 10:06 36.12658 -5.10698 6831 ft 214 kts 101°
2026-04-27 10:06 36.12469 -5.08857 7181 ft 216 kts 101°
2026-04-27 10:06 36.12279 -5.07001 7515 ft 219 kts 101°
2026-04-27 10:07 36.12085 -5.05109 7850 ft 223 kts 101°
2026-04-27 10:07 36.11888 -5.03195 8170 ft 226 kts 101°
2026-04-27 10:07 36.11685 -5.01246 8499 ft 230 kts 101°
2026-04-27 10:07 36.11484 -4.99263 8814 ft 233 kts 100°
2026-04-27 10:08 36.11276 -4.97263 9136 ft 236 kts 101°
2026-04-27 10:08 36.11066 -4.95254 9452 ft 240 kts 100°
2026-04-27 10:08 36.10855 -4.93189 9762 ft 244 kts 100°
2026-04-27 10:08 36.10653 -4.91220 10062 ft 246 kts 100°
2026-04-27 10:09 36.10431 -4.89108 10376 ft 247 kts 99°
2026-04-27 10:09 36.10211 -4.87007 10714 ft 247 kts 99°
2026-04-27 10:09 36.09993 -4.84899 11029 ft 247 kts 100°
2026-04-27 10:09 36.09772 -4.82791 11358 ft 247 kts 99°
2026-04-27 10:10 36.09551 -4.80679 11677 ft 248 kts 100°
2026-04-27 10:10 36.09328 -4.78568 12009 ft 247 kts 100°
2026-04-27 10:10 36.09108 -4.76457 12314 ft 249 kts 99°
2026-04-27 10:10 36.08888 -4.74359 12638 ft 248 kts 100°
2026-04-27 10:11 36.08715 -4.72233 12959 ft 250 kts 90°
2026-04-27 10:11 36.08874 -4.70086 13246 ft 251 kts 86°
2026-04-27 10:11 36.09034 -4.67935 13562 ft 251 kts 87°
2026-04-27 10:11 36.09177 -4.65782 13870 ft 252 kts 87°
2026-04-27 10:12 36.09330 -4.63629 14136 ft 252 kts 87°
2026-04-27 10:12 36.09486 -4.61468 14385 ft 253 kts 87°
2026-04-27 10:12 36.09638 -4.59294 14639 ft 254 kts 87°
2026-04-27 10:12 36.09791 -4.57104 14903 ft 255 kts 86°
2026-04-27 10:13 36.09945 -4.54916 15147 ft 256 kts 86°
2026-04-27 10:13 36.10100 -4.52714 15399 ft 257 kts 86°
2026-04-27 10:13 36.10249 -4.50572 15639 ft 257 kts 86°
2026-04-27 10:13 36.10402 -4.48362 15887 ft 258 kts 87°
2026-04-27 10:14 36.10555 -4.46146 16130 ft 259 kts 87°
2026-04-27 10:14 36.10710 -4.43950 16369 ft 260 kts 87°
2026-04-27 10:14 36.10863 -4.41712 16608 ft 261 kts 86°
2026-04-27 10:14 36.11016 -4.39481 16844 ft 262 kts 86°
2026-04-27 10:15 36.11170 -4.37222 17084 ft 262 kts 86°
2026-04-27 10:15 36.11325 -4.34964 17310 ft 264 kts 86°
2026-04-27 10:15 36.11479 -4.32699 17545 ft 264 kts 86°
2026-04-27 10:15 36.11633 -4.30433 17795 ft 265 kts 86°
2026-04-27 10:16 36.11789 -4.28154 18009 ft 266 kts 86°
2026-04-27 10:16 36.11941 -4.25901 18233 ft 267 kts 86°
2026-04-27 10:16 36.12097 -4.23578 18443 ft 268 kts 86°
2026-04-27 10:16 36.12250 -4.21305 18628 ft 269 kts 86°
2026-04-27 10:17 36.12404 -4.19003 18807 ft 270 kts 86°
2026-04-27 10:17 36.12560 -4.16681 18983 ft 271 kts 86°
2026-04-27 10:17 36.12717 -4.14353 19163 ft 272 kts 86°
2026-04-27 10:17 36.12871 -4.12019 19347 ft 272 kts 86°
2026-04-27 10:18 36.13026 -4.09677 19516 ft 273 kts 86°
2026-04-27 10:18 36.13181 -4.07323 19684 ft 275 kts 86°
2026-04-27 10:18 36.13336 -4.04972 19854 ft 276 kts 86°
2026-04-27 10:18 36.13492 -4.02611 20028 ft 276 kts 86°
2026-04-27 10:19 36.13647 -4.00237 20191 ft 277 kts 86°
2026-04-27 10:19 36.13801 -3.97879 20361 ft 278 kts 86°
2026-04-27 10:19 36.13956 -3.95485 20519 ft 279 kts 86°
2026-04-27 10:19 36.14113 -3.93089 20681 ft 280 kts 86°
2026-04-27 10:20 36.14269 -3.90676 20844 ft 281 kts 85°
2026-04-27 10:20 36.14424 -3.88266 21003 ft 281 kts 85°
2026-04-27 10:20 36.14580 -3.85846 21162 ft 282 kts 86°
2026-04-27 10:20 36.14735 -3.83420 21315 ft 283 kts 85°
2026-04-27 10:21 36.14890 -3.80986 21466 ft 284 kts 85°
2026-04-27 10:21 36.15046 -3.78539 21624 ft 285 kts 85°
2026-04-27 10:21 36.15199 -3.76130 21774 ft 286 kts 85°
2026-04-27 10:21 36.15355 -3.73668 21930 ft 286 kts 85°
2026-04-27 10:22 36.15510 -3.71209 22080 ft 287 kts 85°
2026-04-27 10:22 36.15665 -3.68740 22228 ft 287 kts 85°
2026-04-27 10:22 36.15820 -3.66275 22374 ft 288 kts 85°
2026-04-27 10:22 36.15974 -3.63800 22520 ft 289 kts 85°
2026-04-27 10:23 36.16129 -3.61321 22663 ft 289 kts 85°
2026-04-27 10:23 36.16283 -3.58830 22798 ft 290 kts 85°
2026-04-27 10:23 36.16437 -3.56338 22933 ft 291 kts 85°
2026-04-27 10:23 36.16591 -3.53840 23073 ft 291 kts 85°
2026-04-27 10:24 36.16744 -3.51336 23212 ft 292 kts 85°
2026-04-27 10:24 36.16898 -3.48836 23336 ft 293 kts 85°
2026-04-27 10:24 36.17051 -3.46318 23467 ft 293 kts 85°
2026-04-27 10:24 36.17202 -3.43828 23594 ft 294 kts 85°
2026-04-27 10:25 36.17357 -3.41270 23677 ft 294 kts 85°
2026-04-27 10:25 36.17510 -3.38743 23760 ft 295 kts 85°
2026-04-27 10:25 36.17662 -3.36206 23837 ft 295 kts 85°
2026-04-27 10:25 36.17812 -3.33704 23915 ft 295 kts 85°
2026-04-27 10:26 36.17963 -3.31171 23993 ft 295 kts 85°
2026-04-27 10:26 36.18114 -3.28629 24060 ft 296 kts 85°
2026-04-27 10:26 36.18266 -3.26082 24136 ft 296 kts 85°
2026-04-27 10:26 36.18415 -3.23547 24202 ft 296 kts 85°
2026-04-27 10:27 36.18566 -3.20989 24262 ft 297 kts 85°
2026-04-27 10:27 36.18715 -3.18443 24328 ft 297 kts 85°
2026-04-27 10:27 36.18865 -3.15888 24395 ft 297 kts 85°
2026-04-27 10:27 36.19013 -3.13330 24449 ft 298 kts 85°
2026-04-27 10:28 36.19159 -3.10803 24500 ft 298 kts 85°
2026-04-27 10:28 36.19308 -3.08241 24557 ft 298 kts 85°
2026-04-27 10:28 36.19455 -3.05677 24609 ft 299 kts 85°
2026-04-27 10:28 36.19603 -3.03107 24667 ft 299 kts 85°
2026-04-27 10:29 36.19750 -3.00536 24717 ft 299 kts 85°
2026-04-27 10:29 36.19895 -2.97969 24759 ft 299 kts 85°
2026-04-27 10:29 36.20042 -2.95395 24810 ft 300 kts 85°
2026-04-27 10:29 36.20188 -2.92813 24859 ft 300 kts 85°
2026-04-27 10:30 36.20332 -2.90237 24909 ft 300 kts 85°
2026-04-27 10:30 36.20503 -2.87676 25161 ft 291 kts 80°
2026-04-27 10:30 36.20951 -2.85269 25389 ft 287 kts 75°
2026-04-27 10:30 36.21436 -2.82943 25749 ft 278 kts 75°
2026-04-27 10:31 36.21907 -2.80618 25952 ft 278 kts 75°
2026-04-27 10:31 36.22375 -2.78278 26022 ft 283 kts 75°
2026-04-27 10:31 36.22854 -2.75892 26043 ft 288 kts 75°
2026-04-27 10:31 36.23341 -2.73469 26060 ft 292 kts 75°
2026-04-27 10:32 36.23836 -2.71013 26073 ft 295 kts 75°
2026-04-27 10:32 36.24333 -2.68527 26081 ft 298 kts 75°
2026-04-27 10:32 36.24834 -2.66024 26083 ft 300 kts 75°
2026-04-27 10:32 36.25332 -2.63538 26086 ft 302 kts 75°
2026-04-27 10:33 36.25837 -2.61009 26087 ft 303 kts 75°
2026-04-27 10:33 36.26345 -2.58464 26091 ft 304 kts 75°
2026-04-27 10:33 36.26853 -2.55914 26093 ft 305 kts 75°
2026-04-27 10:33 36.27189 -2.54226 26092 ft 305 kts 75°
2026-04-27 10:34 36.27699 -2.51662 26092 ft 306 kts 74°
2026-04-27 10:34 36.28206 -2.49108 26090 ft 306 kts 75°
2026-04-27 10:34 36.28716 -2.46536 26094 ft 306 kts 75°
2026-04-27 10:34 36.29223 -2.43978 26095 ft 307 kts 75°
2026-04-27 10:35 36.29734 -2.41399 26096 ft 307 kts 74°
2026-04-27 10:35 36.30244 -2.38823 26096 ft 307 kts 75°
2026-04-27 10:35 36.30750 -2.36255 26095 ft 307 kts 75°
2026-04-27 10:35 36.31258 -2.33678 26096 ft 307 kts 74°
2026-04-27 10:36 36.31757 -2.31142 26099 ft 307 kts 75°
2026-04-27 10:36 36.32265 -2.28565 26098 ft 307 kts 74°
2026-04-27 10:36 36.32771 -2.25991 26097 ft 307 kts 75°
2026-04-27 10:36 36.33275 -2.23422 26098 ft 307 kts 74°
2026-04-27 10:37 36.33781 -2.20845 26101 ft 307 kts 74°
2026-04-27 10:37 36.34283 -2.18272 26101 ft 307 kts 75°
2026-04-27 10:37 36.34787 -2.15703 26102 ft 307 kts 74°
2026-04-27 10:37 36.35290 -2.13130 26095 ft 307 kts 74°
2026-04-27 10:38 36.35785 -2.10588 26096 ft 307 kts 75°
2026-04-27 10:38 36.36291 -2.07984 26103 ft 307 kts 74°
2026-04-27 10:38 36.36797 -2.05459 26106 ft 306 kts 71°
2026-04-27 10:38 36.37508 -2.02968 26099 ft 305 kts 67°
2026-04-27 10:39 36.38198 -2.00475 26100 ft 305 kts 69°
2026-04-27 10:39 36.38874 -1.97991 26104 ft 305 kts 69°
2026-04-27 10:39 36.39578 -1.95496 26102 ft 304 kts 67°
2026-04-27 10:39 36.40282 -1.93018 26107 ft 304 kts 67°
2026-04-27 10:40 36.40977 -1.90538 26103 ft 304 kts 69°
2026-04-27 10:40 36.41658 -1.88086 26106 ft 304 kts 68°
2026-04-27 10:40 36.42347 -1.85623 26106 ft 304 kts 68°
2026-04-27 10:40 36.43040 -1.83144 26102 ft 304 kts 68°
2026-04-27 10:41 36.43730 -1.80664 26106 ft 304 kts 67°
2026-04-27 10:41 36.44422 -1.78180 26108 ft 304 kts 67°
2026-04-27 10:41 36.45115 -1.75699 26107 ft 304 kts 68°
2026-04-27 10:41 36.45795 -1.73255 26107 ft 303 kts 68°
2026-04-27 10:42 36.46490 -1.70747 26111 ft 303 kts 68°
2026-04-27 10:42 36.47170 -1.68296 26107 ft 303 kts 67°
2026-04-27 10:42 36.47857 -1.65825 26108 ft 303 kts 67°
2026-04-27 10:42 36.48548 -1.63340 26109 ft 303 kts 68°
2026-04-27 10:43 36.49233 -1.60863 26110 ft 303 kts 67°
2026-04-27 10:43 36.49917 -1.58388 26105 ft 303 kts 68°
2026-04-27 10:43 36.50600 -1.55915 26109 ft 302 kts 68°
2026-04-27 10:43 36.51284 -1.53438 26107 ft 302 kts 68°
2026-04-27 10:44 36.51965 -1.50970 26112 ft 302 kts 67°
2026-04-27 10:44 36.52649 -1.48498 26108 ft 302 kts 69°
2026-04-27 10:44 36.53328 -1.46028 26110 ft 302 kts 69°
2026-04-27 10:44 36.54000 -1.43583 26110 ft 302 kts 69°
2026-04-27 10:45 36.54680 -1.41108 26107 ft 302 kts 67°
2026-04-27 10:45 36.55360 -1.38638 26108 ft 301 kts 69°
2026-04-27 10:45 36.56034 -1.36177 26109 ft 301 kts 66°
2026-04-27 10:45 36.56711 -1.33708 26111 ft 301 kts 69°
2026-04-27 10:46 36.57386 -1.31242 26111 ft 301 kts 68°
2026-04-27 10:46 36.58064 -1.28768 26110 ft 301 kts 68°
2026-04-27 10:46 36.58737 -1.26303 26108 ft 301 kts 68°
2026-04-27 10:46 36.59401 -1.23867 26110 ft 301 kts 69°
2026-04-27 10:47 36.60115 -1.21414 26113 ft 299 kts 61°
2026-04-27 10:47 36.61111 -1.19158 26112 ft 298 kts 56°
2026-04-27 10:47 36.62133 -1.16913 26111 ft 298 kts 57°
2026-04-27 10:47 36.63135 -1.14652 26111 ft 298 kts 58°
2026-04-27 10:48 36.64135 -1.12386 26112 ft 298 kts 58°
2026-04-27 10:48 36.65138 -1.10136 26110 ft 298 kts 57°
2026-04-27 10:48 36.66141 -1.07884 26114 ft 297 kts 58°
2026-04-27 10:48 36.67143 -1.05628 26110 ft 297 kts 58°
2026-04-27 10:49 36.68146 -1.03366 26113 ft 297 kts 58°
2026-04-27 10:49 36.69133 -1.01141 26112 ft 297 kts 58°
2026-04-27 10:49 36.70133 -0.98888 26111 ft 297 kts 58°
2026-04-27 10:49 36.71134 -0.96629 26115 ft 297 kts 58°
2026-04-27 10:50 36.72131 -0.94372 26114 ft 297 kts 58°
2026-04-27 10:50 36.72532 -0.93467 26119 ft 297 kts 58°
2026-04-27 10:51 36.73526 -0.91219 26111 ft 297 kts 58°
2026-04-27 10:51 36.74525 -0.88960 26114 ft 296 kts 58°
2026-04-27 10:51 36.75521 -0.86707 26113 ft 296 kts 58°
2026-04-27 10:51 36.76516 -0.84450 26112 ft 296 kts 58°
2026-04-27 10:52 36.77511 -0.82194 26116 ft 296 kts 58°
2026-04-27 10:52 36.78501 -0.79947 26114 ft 296 kts 58°
2026-04-27 10:52 36.79493 -0.77694 26115 ft 296 kts 58°
2026-04-27 10:52 36.80482 -0.75448 26115 ft 296 kts 58°
2026-04-27 10:53 36.81474 -0.73193 26114 ft 295 kts 58°
2026-04-27 10:53 36.83438 -0.68723 26115 ft 295 kts 59°
2026-04-27 10:53 36.84423 -0.66477 26112 ft 295 kts 59°
2026-04-27 10:54 36.85409 -0.64231 26112 ft 295 kts 59°
2026-04-27 10:54 36.86393 -0.61987 26115 ft 294 kts 59°
2026-04-27 10:54 36.87376 -0.59741 26115 ft 294 kts 59°
2026-04-27 10:54 36.88357 -0.57500 26113 ft 294 kts 59°
2026-04-27 10:55 36.89338 -0.55257 26111 ft 294 kts 59°
2026-04-27 10:55 36.90315 -0.53022 26114 ft 293 kts 59°
2026-04-27 10:55 36.91296 -0.50777 26114 ft 293 kts 59°
2026-04-27 10:55 36.92275 -0.48535 26113 ft 293 kts 59°
2026-04-27 10:56 36.93250 -0.46298 26112 ft 293 kts 59°
2026-04-27 10:56 36.94213 -0.44091 26114 ft 293 kts 59°
2026-04-27 10:56 36.95186 -0.41857 26114 ft 292 kts 59°
2026-04-27 10:56 36.96159 -0.39622 26115 ft 292 kts 59°
2026-04-27 10:57 36.97131 -0.37387 26116 ft 292 kts 60°
2026-04-27 10:57 36.98101 -0.35157 26118 ft 292 kts 60°
2026-04-27 10:57 36.99072 -0.32921 26116 ft 292 kts 60°
2026-04-27 10:57 37.00041 -0.30689 26115 ft 292 kts 60°
2026-04-27 10:58 37.01008 -0.28459 26116 ft 292 kts 60°
2026-04-27 10:58 37.01975 -0.26229 26116 ft 292 kts 60°
2026-04-27 10:58 37.02942 -0.24000 26121 ft 291 kts 60°
2026-04-27 10:58 37.03908 -0.21768 26113 ft 291 kts 60°
2026-04-27 10:59 37.04871 -0.19538 26113 ft 291 kts 60°
2026-04-27 10:59 37.05835 -0.17309 26113 ft 291 kts 61°
2026-04-27 10:59 37.06798 -0.15082 26115 ft 291 kts 61°
2026-04-27 11:00 37.08724 -0.10619 26114 ft 291 kts 61°
2026-04-27 11:00 37.09670 -0.08424 26116 ft 291 kts 62°
2026-04-27 11:00 37.10634 -0.06188 26114 ft 291 kts 62°
2026-04-27 11:00 37.11594 -0.03959 26113 ft 291 kts 62°
2026-04-27 11:01 37.12556 -0.01724 26118 ft 291 kts 62°
2026-04-27 11:01 37.13517 0.00510 26114 ft 291 kts 62°
2026-04-27 11:01 37.14475 0.02738 26112 ft 291 kts 62°
2026-04-27 11:01 37.15433 0.04971 26117 ft 291 kts 63°
2026-04-27 11:02 37.16395 0.07210 26116 ft 291 kts 63°
2026-04-27 11:02 37.17356 0.09449 26116 ft 291 kts 63°
2026-04-27 11:02 37.18314 0.11687 26118 ft 291 kts 63°
2026-04-27 11:02 37.19273 0.13926 26116 ft 291 kts 63°
2026-04-27 11:03 37.20220 0.16137 26117 ft 292 kts 63°
2026-04-27 11:03 37.21180 0.18382 26114 ft 292 kts 63°
2026-04-27 11:03 37.22138 0.20622 26114 ft 292 kts 63°
2026-04-27 11:03 37.23100 0.22874 26110 ft 292 kts 63°
2026-04-27 11:04 37.24060 0.25123 26106 ft 292 kts 64°
2026-04-27 11:04 37.25022 0.27378 26110 ft 292 kts 64°
2026-04-27 11:04 37.25983 0.29632 26108 ft 292 kts 64°
2026-04-27 11:04 37.26896 0.31777 26110 ft 292 kts 64°
2026-04-27 11:05 37.27844 0.34004 26108 ft 293 kts 64°
2026-04-27 11:05 37.28801 0.36253 26107 ft 293 kts 64°
2026-04-27 11:05 37.29762 0.38513 26100 ft 293 kts 64°
2026-04-27 11:05 37.30721 0.40771 26104 ft 293 kts 64°
2026-04-27 11:06 37.31678 0.43026 26105 ft 293 kts 64°
2026-04-27 11:06 37.32637 0.45288 26103 ft 293 kts 65°
2026-04-27 11:06 37.33592 0.47539 26102 ft 293 kts 65°
2026-04-27 11:06 37.34551 0.49802 26105 ft 293 kts 65°
2026-04-27 11:07 37.35509 0.52066 26102 ft 293 kts 65°
2026-04-27 11:07 37.36454 0.54301 26107 ft 293 kts 65°
2026-04-27 11:07 37.37412 0.56567 26100 ft 294 kts 65°
2026-04-27 11:07 37.38370 0.58836 26102 ft 294 kts 65°
2026-04-27 11:08 37.39329 0.61106 26101 ft 294 kts 65°
2026-04-27 11:08 37.40290 0.63386 26102 ft 295 kts 65°
2026-04-27 11:08 37.41248 0.65658 26101 ft 295 kts 65°
2026-04-27 11:08 37.42214 0.67952 26105 ft 295 kts 65°
2026-04-27 11:09 37.43165 0.70211 26103 ft 296 kts 65°
2026-04-27 11:09 37.44130 0.72504 26105 ft 296 kts 65°
2026-04-27 11:09 37.45093 0.74796 26103 ft 297 kts 65°
2026-04-27 11:09 37.46057 0.77091 26106 ft 297 kts 66°
2026-04-27 11:10 37.47023 0.79394 26105 ft 297 kts 66°
2026-04-27 11:10 37.47992 0.81703 26107 ft 298 kts 66°
2026-04-27 11:10 37.48961 0.84016 26102 ft 298 kts 66°
2026-04-27 11:10 37.49927 0.86324 26106 ft 299 kts 66°
2026-04-27 11:11 37.50889 0.88622 26105 ft 299 kts 66°
2026-04-27 11:11 37.51863 0.90951 26102 ft 299 kts 66°
2026-04-27 11:11 37.52834 0.93274 26106 ft 299 kts 66°
2026-04-27 11:11 37.53804 0.95599 26109 ft 300 kts 66°
2026-04-27 11:12 37.54771 0.97915 26105 ft 300 kts 66°
2026-04-27 11:12 37.55746 1.00254 26106 ft 300 kts 66°
2026-04-27 11:12 37.56706 1.02558 26104 ft 300 kts 66°
2026-04-27 11:12 37.57675 1.04886 26107 ft 300 kts 66°
2026-04-27 11:13 37.58648 1.07224 26107 ft 300 kts 66°
2026-04-27 11:13 37.59620 1.09563 26107 ft 301 kts 66°
2026-04-27 11:13 37.60591 1.11899 26105 ft 301 kts 66°
2026-04-27 11:13 37.61563 1.14243 26108 ft 301 kts 66°
2026-04-27 11:14 37.62535 1.16584 26109 ft 301 kts 66°
2026-04-27 11:14 37.63492 1.18895 26110 ft 301 kts 66°
2026-04-27 11:14 37.64461 1.21234 26105 ft 301 kts 66°
2026-04-27 11:14 37.65432 1.23580 26108 ft 301 kts 66°
2026-04-27 11:15 37.66404 1.25930 26107 ft 301 kts 66°
2026-04-27 11:15 37.67373 1.28273 26107 ft 301 kts 66°
2026-04-27 11:15 37.68339 1.30614 26108 ft 301 kts 65°
2026-04-27 11:15 37.69299 1.32940 26110 ft 301 kts 65°
2026-04-27 11:16 37.70269 1.35293 26110 ft 301 kts 65°
2026-04-27 11:16 37.71236 1.37639 26108 ft 302 kts 65°
2026-04-27 11:16 37.72209 1.40002 26109 ft 302 kts 65°
2026-04-27 11:16 37.73165 1.42326 26112 ft 302 kts 65°
2026-04-27 11:17 37.74135 1.44686 26110 ft 302 kts 65°
2026-04-27 11:17 37.75104 1.47044 26108 ft 302 kts 65°
2026-04-27 11:17 37.76074 1.49408 26109 ft 302 kts 65°
2026-04-27 11:17 37.76902 1.51426 26110 ft 303 kts 65°
2026-04-27 11:18 37.77871 1.53792 26108 ft 303 kts 65°
2026-04-27 11:18 37.78842 1.56166 26111 ft 303 kts 65°
2026-04-27 11:18 37.79674 1.58200 26108 ft 303 kts 65°
2026-04-27 11:18 37.80630 1.60536 26113 ft 303 kts 65°
2026-04-27 11:19 37.81597 1.62906 26114 ft 303 kts 65°
2026-04-27 11:19 37.82570 1.65288 26113 ft 304 kts 65°
2026-04-27 11:19 37.83538 1.67663 26110 ft 304 kts 65°
2026-04-27 11:19 37.84508 1.70043 26111 ft 304 kts 65°
2026-04-27 11:20 37.85477 1.72423 26110 ft 304 kts 65°
2026-04-27 11:20 37.86450 1.74812 26112 ft 304 kts 65°
2026-04-27 11:20 37.87409 1.77170 26109 ft 304 kts 65°
2026-04-27 11:20 37.88377 1.79553 26111 ft 305 kts 65°
2026-04-27 11:21 37.89345 1.81939 26111 ft 305 kts 65°
2026-04-27 11:21 37.90314 1.84327 26108 ft 305 kts 65°
2026-04-27 11:21 37.91284 1.86719 26114 ft 305 kts 65°
2026-04-27 11:21 37.92255 1.89116 26112 ft 305 kts 65°
2026-04-27 11:22 37.93226 1.91515 26111 ft 306 kts 65°
2026-04-27 11:22 37.93866 1.93099 26114 ft 306 kts 65°
2026-04-27 11:22 37.94841 1.95508 26112 ft 306 kts 65°
2026-04-27 11:22 37.95813 1.97914 26114 ft 306 kts 65°
2026-04-27 11:23 37.96783 2.00320 26112 ft 307 kts 65°
2026-04-27 11:23 37.97754 2.02726 26112 ft 307 kts 65°
2026-04-27 11:23 37.98726 2.05135 26116 ft 307 kts 65°
2026-04-27 11:23 37.99695 2.07543 26112 ft 307 kts 65°
2026-04-27 11:24 38.00668 2.09960 26112 ft 308 kts 65°
2026-04-27 11:24 38.01629 2.12352 26112 ft 308 kts 64°
2026-04-27 11:24 38.02600 2.14770 26114 ft 308 kts 65°
2026-04-27 11:24 38.03574 2.17194 26117 ft 308 kts 64°
2026-04-27 11:25 38.04547 2.19619 26117 ft 308 kts 65°
2026-04-27 11:25 38.05523 2.22055 26117 ft 308 kts 65°
2026-04-27 11:25 38.06495 2.24481 26115 ft 309 kts 65°
2026-04-27 11:25 38.07467 2.26910 26115 ft 309 kts 64°
2026-04-27 11:26 38.08440 2.29341 26115 ft 309 kts 64°
2026-04-27 11:26 38.09414 2.31780 26117 ft 309 kts 65°
2026-04-27 11:26 38.10388 2.34218 26117 ft 309 kts 64°
2026-04-27 11:26 38.11361 2.36662 26114 ft 309 kts 64°
2026-04-27 11:27 38.12334 2.39101 26112 ft 310 kts 64°
2026-04-27 11:27 38.13308 2.41541 26113 ft 310 kts 64°
2026-04-27 11:27 38.14267 2.43951 26110 ft 310 kts 64°
2026-04-27 11:27 38.15235 2.46389 26115 ft 310 kts 64°
2026-04-27 11:28 38.16210 2.48841 26114 ft 310 kts 64°
2026-04-27 11:28 38.17398 2.51134 26122 ft 311 kts 50°
2026-04-27 11:28 38.18822 2.53204 26127 ft 311 kts 49°
2026-04-27 11:28 38.20236 2.55250 26126 ft 311 kts 50°
2026-04-27 11:29 38.21639 2.57333 26126 ft 311 kts 50°
2026-04-27 11:29 38.23048 2.59436 26127 ft 311 kts 50°
2026-04-27 11:29 38.24457 2.61523 26127 ft 311 kts 50°
2026-04-27 11:29 38.25868 2.63609 26123 ft 311 kts 50°
2026-04-27 11:30 38.27278 2.65699 26125 ft 311 kts 50°
2026-04-27 11:30 38.28686 2.67791 26125 ft 310 kts 50°
2026-04-27 11:30 38.30073 2.69853 26126 ft 310 kts 50°
2026-04-27 11:30 38.31479 2.71941 26123 ft 310 kts 50°
2026-04-27 11:31 38.32888 2.74037 26122 ft 310 kts 50°
2026-04-27 11:31 38.34291 2.76126 26131 ft 310 kts 50°
2026-04-27 11:31 38.35675 2.78186 26135 ft 310 kts 50°
2026-04-27 11:31 38.37091 2.80298 26129 ft 310 kts 50°
2026-04-27 11:32 38.38477 2.82364 26133 ft 309 kts 50°
2026-04-27 11:32 38.39874 2.84448 26129 ft 309 kts 50°
2026-04-27 11:32 38.41277 2.86543 26130 ft 309 kts 50°
2026-04-27 11:32 38.42675 2.88631 26134 ft 309 kts 50°
2026-04-27 11:33 38.44072 2.90719 26142 ft 309 kts 50°
2026-04-27 11:33 38.45448 2.92776 26133 ft 309 kts 50°
2026-04-27 11:33 38.46844 2.94865 26135 ft 309 kts 50°
2026-04-27 11:33 38.48236 2.96950 26135 ft 309 kts 50°
2026-04-27 11:34 38.49629 2.99038 26133 ft 309 kts 50°
2026-04-27 11:34 38.51023 3.01127 26133 ft 309 kts 50°
2026-04-27 11:34 38.52414 3.03214 26137 ft 308 kts 50°
2026-04-27 11:34 38.53803 3.05299 26135 ft 308 kts 50°
2026-04-27 11:35 38.55195 3.07391 26135 ft 308 kts 50°
2026-04-27 11:35 38.56584 3.09478 26137 ft 308 kts 50°
2026-04-27 11:35 38.57954 3.11540 26138 ft 308 kts 50°
2026-04-27 11:35 38.59346 3.13636 26135 ft 308 kts 50°
2026-04-27 11:36 38.60735 3.15727 26135 ft 308 kts 50°
2026-04-27 11:36 38.62124 3.17823 26135 ft 308 kts 50°
2026-04-27 11:36 38.63507 3.19910 26135 ft 308 kts 50°
2026-04-27 11:36 38.64892 3.22002 26135 ft 308 kts 50°
2026-04-27 11:37 38.66276 3.24093 26138 ft 308 kts 50°
2026-04-27 11:37 38.67658 3.26185 26141 ft 308 kts 49°
2026-04-27 11:37 38.69041 3.28275 26137 ft 308 kts 50°
2026-04-27 11:37 38.70421 3.30366 26137 ft 307 kts 49°
2026-04-27 11:38 38.71787 3.32436 26138 ft 307 kts 49°
2026-04-27 11:38 38.73166 3.34525 26139 ft 307 kts 49°
2026-04-27 11:38 38.74544 3.36617 26141 ft 307 kts 49°
2026-04-27 11:38 38.75922 3.38709 26140 ft 307 kts 49°
2026-04-27 11:39 38.77302 3.40804 26140 ft 307 kts 49°
2026-04-27 11:39 38.78680 3.42900 26138 ft 307 kts 49°
2026-04-27 11:39 38.80055 3.44992 26142 ft 307 kts 49°
2026-04-27 11:39 38.81435 3.47091 26138 ft 307 kts 49°
2026-04-27 11:40 38.82795 3.49163 26143 ft 307 kts 49°
2026-04-27 11:40 38.84168 3.51257 26146 ft 307 kts 49°
2026-04-27 11:40 38.85545 3.53357 26145 ft 307 kts 49°
2026-04-27 11:40 38.86913 3.55443 26144 ft 307 kts 49°
2026-04-27 11:41 38.88292 3.57550 26144 ft 307 kts 49°
2026-04-27 11:41 38.89665 3.59649 26146 ft 307 kts 49°
2026-04-27 11:41 38.91041 3.61752 26145 ft 307 kts 49°
2026-04-27 11:41 38.92414 3.63852 26151 ft 307 kts 49°
2026-04-27 11:42 38.93786 3.65953 26147 ft 307 kts 49°
2026-04-27 11:42 38.95160 3.68059 26151 ft 307 kts 49°
2026-04-27 11:42 38.96536 3.70168 26149 ft 307 kts 49°
2026-04-27 11:42 38.97891 3.72247 26145 ft 307 kts 49°
2026-04-27 11:43 38.99261 3.74349 26150 ft 307 kts 49°
2026-04-27 11:43 39.00636 3.76463 26150 ft 307 kts 49°
2026-04-27 11:43 39.02008 3.78573 26149 ft 307 kts 49°
2026-04-27 11:43 39.03378 3.80680 26149 ft 307 kts 49°
2026-04-27 11:44 39.04746 3.82787 26150 ft 307 kts 48°
2026-04-27 11:44 39.06118 3.84897 26146 ft 307 kts 48°
2026-04-27 11:44 39.07486 3.87006 26146 ft 306 kts 48°
2026-04-27 11:44 39.08851 3.89112 26151 ft 306 kts 48°
2026-04-27 11:45 39.10199 3.91192 26152 ft 306 kts 48°
2026-04-27 11:45 39.11121 3.92617 26150 ft 306 kts 48°
2026-04-27 11:45 39.12930 3.95412 26156 ft 306 kts 48°
2026-04-27 11:45 39.14294 3.97522 26153 ft 306 kts 48°
2026-04-27 11:46 39.15656 3.99629 26152 ft 306 kts 48°
2026-04-27 11:46 39.17002 4.01714 26152 ft 306 kts 48°
2026-04-27 11:46 39.18364 4.03824 26155 ft 306 kts 48°
2026-04-27 11:46 39.19727 4.05938 26151 ft 306 kts 48°
2026-04-27 11:47 39.21086 4.08046 26153 ft 305 kts 48°
2026-04-27 11:47 39.22447 4.10159 26154 ft 305 kts 48°
2026-04-27 11:47 39.23802 4.12264 26154 ft 305 kts 48°
2026-04-27 11:47 39.25159 4.14374 26151 ft 305 kts 48°
2026-04-27 11:48 39.26514 4.16483 26151 ft 305 kts 48°
2026-04-27 11:48 39.27870 4.18594 26154 ft 305 kts 48°
2026-04-27 11:48 39.29208 4.20678 26150 ft 305 kts 48°
2026-04-27 11:48 39.30566 4.22795 26151 ft 305 kts 48°
2026-04-27 11:49 39.31924 4.24914 26154 ft 305 kts 48°
2026-04-27 11:49 39.33274 4.27020 26154 ft 305 kts 48°
2026-04-27 11:49 39.34630 4.29139 26153 ft 305 kts 48°
2026-04-27 11:49 39.35966 4.31227 26157 ft 305 kts 48°
2026-04-27 11:50 39.37321 4.33347 26156 ft 304 kts 48°
2026-04-27 11:50 39.38673 4.35463 26155 ft 304 kts 48°
2026-04-27 11:50 39.40023 4.37578 26153 ft 304 kts 48°
2026-04-27 11:50 39.41354 4.39664 26154 ft 304 kts 48°
2026-04-27 11:51 39.42704 4.41781 26152 ft 304 kts 49°
2026-04-27 11:51 39.44052 4.43896 26153 ft 304 kts 49°
2026-04-27 11:51 39.46723 4.48092 26153 ft 303 kts 49°
2026-04-27 11:52 39.48068 4.50207 26156 ft 303 kts 49°
2026-04-27 11:52 39.49407 4.52314 26158 ft 303 kts 49°
2026-04-27 11:52 39.50749 4.54428 26154 ft 303 kts 49°
2026-04-27 11:52 39.52085 4.56533 26156 ft 303 kts 49°
2026-04-27 11:53 39.53431 4.58655 26156 ft 303 kts 49°
2026-04-27 11:53 39.54770 4.60767 26153 ft 303 kts 49°
2026-04-27 11:53 39.56089 4.62850 26154 ft 302 kts 49°
2026-04-27 11:53 39.57426 4.64966 26153 ft 302 kts 49°
2026-04-27 11:54 39.58445 4.67345 26155 ft 306 kts 72°
2026-04-27 11:54 39.58763 4.70084 26151 ft 308 kts 83°
2026-04-27 11:54 39.58936 4.72840 26153 ft 308 kts 84°
2026-04-27 11:54 39.59100 4.75616 26149 ft 308 kts 83°
2026-04-27 11:55 39.59286 4.78386 26154 ft 308 kts 83°
2026-04-27 11:55 39.59478 4.81163 26152 ft 308 kts 83°
2026-04-27 11:55 39.59660 4.83899 26155 ft 309 kts 83°
2026-04-27 11:55 39.59842 4.86679 26149 ft 309 kts 83°
2026-04-27 11:56 39.60024 4.89450 26152 ft 309 kts 83°
2026-04-27 11:56 39.60207 4.92228 26152 ft 309 kts 83°
2026-04-27 11:56 39.60389 4.94999 26152 ft 309 kts 83°
2026-04-27 11:56 39.60570 4.97777 26152 ft 309 kts 83°
2026-04-27 11:57 39.60750 5.00549 26152 ft 309 kts 83°
2026-04-27 11:57 39.60935 5.03302 26152 ft 309 kts 83°
2026-04-27 11:57 39.61122 5.06083 26156 ft 310 kts 83°
2026-04-27 11:57 39.61309 5.08901 26152 ft 310 kts 83°
2026-04-27 11:58 39.61490 5.11658 26151 ft 310 kts 83°
2026-04-27 11:58 39.61674 5.14448 26153 ft 310 kts 83°
2026-04-27 11:58 39.61858 5.17247 26153 ft 310 kts 83°
2026-04-27 11:58 39.62040 5.20036 26150 ft 311 kts 83°
2026-04-27 11:59 39.62222 5.22829 26151 ft 311 kts 83°
2026-04-27 11:59 39.62401 5.25601 26153 ft 311 kts 83°
2026-04-27 11:59 39.62582 5.28402 26152 ft 311 kts 83°
2026-04-27 11:59 39.62763 5.31204 26153 ft 311 kts 83°
2026-04-27 12:00 39.62943 5.34012 26152 ft 312 kts 83°
2026-04-27 12:00 39.63122 5.36813 26152 ft 312 kts 83°
2026-04-27 12:00 39.63300 5.39612 26152 ft 312 kts 83°
2026-04-27 12:00 39.63476 5.42392 26154 ft 312 kts 83°
2026-04-27 12:01 39.63654 5.45212 26153 ft 313 kts 83°
2026-04-27 12:01 39.63831 5.48026 26157 ft 313 kts 83°
2026-04-27 12:01 39.64007 5.50841 26153 ft 313 kts 83°
2026-04-27 12:01 39.64183 5.53654 26150 ft 313 kts 83°
2026-04-27 12:02 39.64358 5.56466 26150 ft 313 kts 84°
2026-04-27 12:02 39.64533 5.59297 26149 ft 314 kts 84°
2026-04-27 12:02 39.64707 5.62121 26153 ft 314 kts 84°
2026-04-27 12:02 39.64881 5.64940 26152 ft 314 kts 84°
2026-04-27 12:03 39.65054 5.67774 26151 ft 314 kts 84°
2026-04-27 12:03 39.65224 5.70566 26151 ft 314 kts 84°
2026-04-27 12:03 39.65396 5.73396 26153 ft 314 kts 84°
2026-04-27 12:03 39.65568 5.76236 26154 ft 314 kts 84°
2026-04-27 12:04 39.65738 5.79067 26152 ft 314 kts 84°
2026-04-27 12:04 39.65908 5.81898 26155 ft 315 kts 84°
2026-04-27 12:04 39.66077 5.84734 26153 ft 315 kts 84°
2026-04-27 12:04 39.66246 5.87570 26151 ft 315 kts 84°
2026-04-27 12:05 39.66411 5.90368 26154 ft 315 kts 84°
2026-04-27 12:05 39.66579 5.93205 26155 ft 315 kts 84°
2026-04-27 12:05 39.66747 5.96064 26150 ft 315 kts 84°
2026-04-27 12:05 39.66913 5.98908 26151 ft 316 kts 84°
2026-04-27 12:06 39.67079 6.01759 26150 ft 316 kts 84°
2026-04-27 12:06 39.67242 6.04566 26150 ft 316 kts 84°
2026-04-27 12:06 39.67406 6.07408 26154 ft 316 kts 85°
2026-04-27 12:06 39.67569 6.10241 26153 ft 316 kts 85°
2026-04-27 12:07 39.67733 6.13096 26152 ft 316 kts 85°
2026-04-27 12:07 39.67894 6.15936 26153 ft 316 kts 85°
2026-04-27 12:07 39.68057 6.18800 26152 ft 316 kts 85°
2026-04-27 12:07 39.68218 6.21654 26153 ft 316 kts 85°
2026-04-27 12:08 39.68324 6.23536 26153 ft 316 kts 85°
2026-04-27 12:08 39.68536 6.27317 26152 ft 316 kts 85°
2026-04-27 12:08 39.68695 6.30164 26153 ft 316 kts 85°
2026-04-27 12:08 39.68853 6.33014 26151 ft 316 kts 85°
2026-04-27 12:09 39.68958 6.34910 26151 ft 316 kts 85°
2026-04-27 12:09 39.69166 6.38694 26154 ft 316 kts 85°
2026-04-27 12:09 39.69323 6.41546 26151 ft 316 kts 85°
2026-04-27 12:09 39.69426 6.43443 26151 ft 316 kts 85°
2026-04-27 12:10 39.69582 6.46300 26149 ft 316 kts 85°
2026-04-27 12:10 39.69736 6.49158 26149 ft 316 kts 85°
2026-04-27 12:10 39.69889 6.51997 26150 ft 316 kts 85°
2026-04-27 12:10 39.70043 6.54860 26148 ft 316 kts 85°
2026-04-27 12:11 39.70195 6.57712 26149 ft 316 kts 85°
2026-04-27 12:11 39.70345 6.60520 26153 ft 316 kts 85°
2026-04-27 12:11 39.70495 6.63378 26152 ft 316 kts 85°
2026-04-27 12:11 39.70646 6.66234 26152 ft 316 kts 85°
2026-04-27 12:12 39.70796 6.69092 26154 ft 316 kts 85°
2026-04-27 12:12 39.70944 6.71938 26152 ft 316 kts 86°
2026-04-27 12:12 39.71091 6.74765 26150 ft 316 kts 86°
2026-04-27 12:12 39.71239 6.77623 26149 ft 316 kts 86°
2026-04-27 12:13 39.71385 6.80481 26149 ft 316 kts 86°
2026-04-27 12:13 39.71532 6.83338 26151 ft 316 kts 86°
2026-04-27 12:13 39.71677 6.86188 26149 ft 316 kts 86°
2026-04-27 12:13 39.71822 6.89050 26149 ft 316 kts 86°
2026-04-27 12:14 39.71966 6.91901 26149 ft 316 kts 86°
2026-04-27 12:14 39.72107 6.94718 26150 ft 316 kts 86°
2026-04-27 12:14 39.72249 6.97569 26147 ft 316 kts 86°
2026-04-27 12:14 39.72391 7.00421 26148 ft 316 kts 86°
2026-04-27 12:15 39.72532 7.03271 26151 ft 316 kts 86°
2026-04-27 12:15 39.72673 7.06122 26149 ft 315 kts 86°
2026-04-27 12:15 39.72812 7.08968 26150 ft 315 kts 86°
2026-04-27 12:15 39.72951 7.11814 26150 ft 315 kts 86°
2026-04-27 12:16 39.73087 7.14632 26146 ft 315 kts 86°
2026-04-27 12:16 39.73123 7.17469 26254 ft 311 kts 94°
2026-04-27 12:16 39.73004 7.20259 26354 ft 309 kts 92°
2026-04-27 12:16 39.72923 7.23049 26466 ft 306 kts 92°
2026-04-27 12:17 39.72833 7.25761 26783 ft 299 kts 93°
2026-04-27 12:17 39.72729 7.28433 26864 ft 300 kts 93°
2026-04-27 12:17 39.72625 7.31177 26969 ft 300 kts 93°
2026-04-27 12:17 39.72526 7.33852 27064 ft 300 kts 93°
2026-04-27 12:18 39.72425 7.36566 27160 ft 301 kts 93°
2026-04-27 12:18 39.72322 7.39286 27248 ft 301 kts 93°
2026-04-27 12:18 39.72219 7.42010 27342 ft 301 kts 93°
2026-04-27 12:18 39.72114 7.44735 27423 ft 302 kts 93°
2026-04-27 12:19 39.72010 7.47456 27504 ft 302 kts 93°
2026-04-27 12:19 39.71905 7.50153 27584 ft 302 kts 93°
2026-04-27 12:19 39.71798 7.52920 27663 ft 303 kts 93°
2026-04-27 12:19 39.71691 7.55643 27735 ft 303 kts 93°
2026-04-27 12:20 39.71583 7.58385 27805 ft 303 kts 93°
2026-04-27 12:20 39.71474 7.61116 27874 ft 303 kts 93°
2026-04-27 12:20 39.71367 7.63825 27937 ft 304 kts 93°
2026-04-27 12:20 39.71256 7.66577 27998 ft 304 kts 93°
2026-04-27 12:21 39.71146 7.69312 28078 ft 303 kts 93°
2026-04-27 12:21 39.70922 7.74812 28112 ft 306 kts 93°
2026-04-27 12:22 39.70695 7.80329 28131 ft 308 kts 93°
2026-04-27 12:22 39.70463 7.85907 28131 ft 309 kts 93°
2026-04-27 12:23 39.70227 7.91499 28137 ft 310 kts 93°
2026-04-27 12:23 39.69990 7.97060 28140 ft 310 kts 93°
2026-04-27 12:24 39.69755 8.02674 28144 ft 310 kts 93°
2026-04-27 12:24 39.69515 8.08243 28142 ft 310 kts 98°
2026-04-27 12:24 39.68996 8.10961 28142 ft 309 kts 110°
2026-04-27 12:25 39.68092 8.13475 28143 ft 308 kts 122°
2026-04-27 12:25 39.65676 8.18065 28144 ft 308 kts 125°
2026-04-27 12:26 39.63247 8.22649 28145 ft 308 kts 126°
2026-04-27 12:26 39.60813 8.27216 28142 ft 307 kts 126°
2026-04-27 12:27 39.58395 8.31753 28141 ft 307 kts 126°
2026-04-27 12:27 39.55960 8.36312 28141 ft 307 kts 126°
2026-04-27 12:28 39.53522 8.40873 28139 ft 307 kts 126°
2026-04-27 12:28 39.51093 8.45408 28138 ft 308 kts 126°
2026-04-27 12:29 39.48648 8.49969 28140 ft 308 kts 126°
2026-04-27 12:29 39.46201 8.54524 28136 ft 309 kts 126°
2026-04-27 12:30 39.43742 8.59098 28137 ft 309 kts 126°
2026-04-27 12:30 39.41280 8.63674 28132 ft 310 kts 126°
2026-04-27 12:31 39.38807 8.68252 28133 ft 310 kts 126°
2026-04-27 12:31 39.36354 8.72800 28133 ft 310 kts 127°
2026-04-27 12:32 39.33894 8.77344 28133 ft 309 kts 127°
2026-04-27 12:32 39.31430 8.81896 28131 ft 308 kts 127°
2026-04-27 12:33 39.28966 8.86438 28133 ft 308 kts 127°
2026-04-27 12:33 39.26499 8.90982 28130 ft 308 kts 127°
2026-04-27 12:34 39.24047 8.95488 28129 ft 308 kts 127°
2026-04-27 12:34 39.21579 9.00020 28128 ft 308 kts 127°
2026-04-27 12:35 39.19099 9.04565 28125 ft 309 kts 127°
2026-04-27 12:35 39.16643 9.09064 28127 ft 308 kts 127°
2026-04-27 12:36 39.14173 9.13578 28126 ft 308 kts 127°
2026-04-27 12:36 39.11705 9.18083 28127 ft 307 kts 128°
2026-04-27 12:37 39.09248 9.22563 28132 ft 307 kts 128°
2026-04-27 12:37 39.06779 9.27057 28133 ft 307 kts 128°
2026-04-27 12:38 39.04323 9.31522 28135 ft 307 kts 128°
2026-04-27 12:38 39.01843 9.36025 28134 ft 307 kts 128°
2026-04-27 12:39 38.99386 9.40479 28134 ft 307 kts 128°
2026-04-27 12:39 38.96914 9.44953 28133 ft 307 kts 128°
2026-04-27 12:40 38.94437 9.49432 28133 ft 307 kts 128°
2026-04-27 12:40 38.91959 9.53906 28131 ft 307 kts 128°
2026-04-27 12:41 38.89497 9.58344 28132 ft 307 kts 128°
2026-04-27 12:41 38.87023 9.62798 28129 ft 307 kts 128°
2026-04-27 12:42 38.84537 9.67268 28130 ft 307 kts 128°
2026-04-27 12:42 38.82057 9.71721 28132 ft 306 kts 128°
2026-04-27 12:43 38.79595 9.76134 28132 ft 306 kts 128°
2026-04-27 12:43 38.77111 9.80583 28128 ft 306 kts 128°
2026-04-27 12:44 38.74620 9.85036 28126 ft 306 kts 128°
2026-04-27 12:44 38.72135 9.89475 28126 ft 307 kts 128°
2026-04-27 12:45 38.69659 9.93890 28124 ft 307 kts 128°
2026-04-27 12:45 38.67160 9.98339 28122 ft 307 kts 128°
2026-04-27 12:46 38.64749 10.02626 28125 ft 307 kts 128°
2026-04-27 12:46 38.62246 10.07071 28128 ft 307 kts 128°
2026-04-27 12:47 38.59750 10.11498 28124 ft 308 kts 128°
2026-04-27 12:47 38.57246 10.15933 28127 ft 308 kts 128°
2026-04-27 12:48 38.54733 10.20378 28123 ft 308 kts 128°
2026-04-27 12:48 38.52219 10.24818 28125 ft 308 kts 128°
2026-04-27 12:49 38.49717 10.29231 28124 ft 308 kts 128°
2026-04-27 12:49 38.47198 10.33667 28124 ft 308 kts 128°
2026-04-27 12:50 38.44679 10.38099 28123 ft 309 kts 128°
2026-04-27 12:50 38.42148 10.42546 28124 ft 309 kts 128°
2026-04-27 12:51 38.39635 10.46953 28121 ft 309 kts 128°
2026-04-27 12:51 38.37103 10.51390 28125 ft 309 kts 128°
2026-04-27 12:52 38.34564 10.55831 28121 ft 309 kts 128°
2026-04-27 12:52 38.32022 10.60272 28125 ft 310 kts 128°
2026-04-27 12:53 38.28785 10.65920 28121 ft 310 kts 128°
2026-04-27 12:53 38.26540 10.69829 28121 ft 311 kts 128°
2026-04-27 12:54 38.23995 10.74256 28121 ft 311 kts 128°
2026-04-27 12:54 38.21431 10.78711 28121 ft 312 kts 128°
2026-04-27 12:55 38.18864 10.83165 28124 ft 312 kts 128°
2026-04-27 12:55 38.16291 10.87623 28124 ft 313 kts 128°
2026-04-27 12:56 38.13732 10.92051 28124 ft 313 kts 128°
2026-04-27 12:56 38.11146 10.96518 28124 ft 313 kts 128°
2026-04-27 12:57 38.08565 11.00972 28123 ft 313 kts 128°
2026-04-27 12:57 38.05988 11.05413 28125 ft 313 kts 128°
2026-04-27 12:58 38.03396 11.09874 28122 ft 313 kts 129°
2026-04-27 12:58 38.00800 11.14334 28119 ft 314 kts 129°
2026-04-27 12:59 37.98223 11.18757 28123 ft 314 kts 129°
2026-04-27 12:59 37.95629 11.23204 28119 ft 314 kts 129°
2026-04-27 13:00 37.93027 11.27657 28121 ft 314 kts 129°
2026-04-27 13:00 37.90444 11.32072 28123 ft 314 kts 129°
2026-04-27 13:01 37.87838 11.36520 28119 ft 314 kts 129°
2026-04-27 13:01 37.85236 11.40956 28120 ft 314 kts 129°
2026-04-27 13:02 37.82629 11.45394 28121 ft 314 kts 129°
2026-04-27 13:02 37.80036 11.49802 28125 ft 314 kts 129°
2026-04-27 13:03 37.77424 11.54237 28123 ft 314 kts 129°
2026-04-27 13:03 37.74803 11.58681 28126 ft 315 kts 129°
2026-04-27 13:04 37.72184 11.63115 28126 ft 315 kts 129°
2026-04-27 13:04 37.69555 11.67560 28123 ft 315 kts 129°
2026-04-27 13:05 37.66941 11.71974 28121 ft 316 kts 129°
2026-04-27 13:05 37.64310 11.76412 28121 ft 316 kts 129°
2026-04-27 13:06 37.61665 11.80867 28121 ft 316 kts 129°
2026-04-27 13:06 37.59040 11.85281 28125 ft 316 kts 129°
2026-04-27 13:07 37.56394 11.89726 28122 ft 317 kts 129°
2026-04-27 13:07 37.53759 11.94147 28123 ft 317 kts 129°
2026-04-27 13:08 37.51099 11.98602 28123 ft 317 kts 129°
2026-04-27 13:08 37.48438 12.03054 28122 ft 318 kts 129°
2026-04-27 13:09 37.45789 12.07481 28122 ft 318 kts 129°
2026-04-27 13:09 37.43110 12.11950 28118 ft 319 kts 129°
2026-04-27 13:10 37.40426 12.16423 28118 ft 320 kts 130°
2026-04-27 13:10 37.37751 12.20873 28121 ft 321 kts 130°
2026-04-27 13:11 37.35056 12.25352 28120 ft 322 kts 130°
2026-04-27 13:11 37.32352 12.29840 28119 ft 322 kts 130°
2026-04-27 13:12 37.29639 12.34336 28119 ft 323 kts 130°
2026-04-27 13:12 37.26921 12.38834 28118 ft 324 kts 130°
2026-04-27 13:13 37.24209 12.43317 28117 ft 324 kts 130°
2026-04-27 13:13 37.21465 12.47846 28118 ft 325 kts 130°
2026-04-27 13:14 37.18727 12.52360 28119 ft 326 kts 130°
2026-04-27 13:14 37.15928 12.56796 28119 ft 325 kts 134°
2026-04-27 13:15 37.13010 12.61144 28119 ft 325 kts 133°
2026-04-27 13:15 37.10101 12.65493 28118 ft 326 kts 133°
2026-04-27 13:16 37.07197 12.69821 28115 ft 326 kts 134°
2026-04-27 13:16 37.04268 12.74182 27925 ft 331 kts 134°
2026-04-27 13:17 37.02784 12.76382 27558 ft 331 kts 134°
2026-04-27 13:17 37.01300 12.78593 27191 ft 329 kts 133°
2026-04-27 13:17 36.99854 12.80750 26844 ft 326 kts 133°
2026-04-27 13:17 36.98395 12.82916 26489 ft 325 kts 134°
2026-04-27 13:18 36.96940 12.85072 26144 ft 323 kts 134°
2026-04-27 13:18 36.95507 12.87243 25798 ft 323 kts 131°
2026-04-27 13:18 36.94146 12.89475 25455 ft 323 kts 130°
2026-04-27 13:18 36.92802 12.91730 25125 ft 322 kts 129°
2026-04-27 13:19 36.91468 12.93975 24790 ft 322 kts 129°
2026-04-27 13:19 36.90139 12.96212 24460 ft 321 kts 129°
2026-04-27 13:19 36.88795 12.98455 24143 ft 320 kts 131°
2026-04-27 13:19 36.87328 13.00520 23819 ft 318 kts 137°
2026-04-27 13:20 36.85778 13.02501 23458 ft 317 kts 138°
2026-04-27 13:20 36.84235 13.04432 23087 ft 316 kts 138°
2026-04-27 13:20 36.82680 13.06367 22713 ft 315 kts 138°
2026-04-27 13:20 36.81121 13.08299 22347 ft 314 kts 138°
2026-04-27 13:21 36.79589 13.10196 21991 ft 313 kts 138°
2026-04-27 13:21 36.78022 13.12131 21625 ft 312 kts 138°
2026-04-27 13:21 36.76567 13.14136 21267 ft 312 kts 131°
2026-04-27 13:21 36.75259 13.16263 20923 ft 312 kts 129°
2026-04-27 13:22 36.73967 13.18442 20575 ft 311 kts 128°
2026-04-27 13:22 36.72688 13.20613 20234 ft 310 kts 128°
2026-04-27 13:22 36.71412 13.22782 19893 ft 309 kts 128°
2026-04-27 13:22 36.70142 13.24936 19556 ft 308 kts 128°
2026-04-27 13:23 36.68875 13.27084 19222 ft 307 kts 128°
2026-04-27 13:23 36.67625 13.29198 18899 ft 306 kts 128°
2026-04-27 13:23 36.66364 13.31327 18574 ft 305 kts 128°
2026-04-27 13:23 36.65102 13.33455 18230 ft 304 kts 128°
2026-04-27 13:24 36.63845 13.35568 17856 ft 303 kts 128°
2026-04-27 13:24 36.62593 13.37672 17492 ft 302 kts 128°
2026-04-27 13:24 36.61361 13.39741 17133 ft 301 kts 128°
2026-04-27 13:24 36.60056 13.41820 16768 ft 299 kts 130°
2026-04-27 13:25 36.58796 13.43834 16418 ft 298 kts 129°
2026-04-27 13:25 36.57530 13.45877 16067 ft 297 kts 129°
2026-04-27 13:25 36.56273 13.47908 15726 ft 297 kts 129°
2026-04-27 13:25 36.55011 13.49945 15383 ft 295 kts 129°
2026-04-27 13:26 36.53759 13.51965 15045 ft 295 kts 129°
2026-04-27 13:26 36.52505 13.53985 14709 ft 294 kts 129°
2026-04-27 13:26 36.51261 13.55988 14380 ft 293 kts 129°
2026-04-27 13:26 36.50011 13.57997 14048 ft 292 kts 129°
2026-04-27 13:27 36.48788 13.59961 13705 ft 291 kts 129°
2026-04-27 13:27 36.47528 13.61978 13331 ft 290 kts 129°
2026-04-27 13:27 36.46311 13.63926 12973 ft 289 kts 129°
2026-04-27 13:27 36.45078 13.65897 12610 ft 288 kts 129°
2026-04-27 13:28 36.43854 13.67853 12259 ft 287 kts 129°
2026-04-27 13:28 36.42628 13.69806 11911 ft 286 kts 129°
2026-04-27 13:28 36.41408 13.71751 11565 ft 284 kts 129°
2026-04-27 13:28 36.40207 13.73662 11228 ft 284 kts 129°
2026-04-27 13:29 36.38977 13.75613 10885 ft 283 kts 129°
2026-04-27 13:29 36.37780 13.77515 10554 ft 281 kts 129°
2026-04-27 13:29 36.36573 13.79426 10223 ft 280 kts 129°
2026-04-27 13:29 36.35375 13.81319 9884 ft 279 kts 129°
2026-04-27 13:30 36.34176 13.83213 9517 ft 278 kts 129°
2026-04-27 13:30 36.32997 13.85071 9163 ft 276 kts 129°
2026-04-27 13:30 36.31810 13.86939 8810 ft 274 kts 129°
2026-04-27 13:30 36.30632 13.88791 8455 ft 272 kts 129°
2026-04-27 13:31 36.29458 13.90635 8109 ft 270 kts 129°
2026-04-27 13:31 36.28313 13.92430 7768 ft 267 kts 129°
2026-04-27 13:31 36.27171 13.94214 7430 ft 261 kts 129°
2026-04-27 13:31 36.26055 13.95962 7093 ft 257 kts 129°
2026-04-27 13:32 36.24949 13.97695 6755 ft 254 kts 129°
2026-04-27 13:32 36.23875 13.99379 6424 ft 251 kts 129°
2026-04-27 13:32 36.22793 14.01076 6066 ft 249 kts 129°
2026-04-27 13:32 36.21722 14.02752 5764 ft 246 kts 129°
2026-04-27 13:33 36.20670 14.04401 5514 ft 241 kts 129°
2026-04-27 13:33 36.19636 14.06016 5268 ft 238 kts 129°
2026-04-27 13:33 36.18614 14.07613 5022 ft 236 kts 129°
2026-04-27 13:33 36.17593 14.09207 4782 ft 235 kts 129°
2026-04-27 13:34 36.16537 14.10861 4523 ft 253 kts 129°
2026-04-27 13:34 36.15420 14.12571 4279 ft 264 kts 133°
2026-04-27 13:34 36.14122 14.14240 4036 ft 267 kts 136°
2026-04-27 13:34 36.12806 14.15855 3794 ft 266 kts 136°
2026-04-27 13:35 36.11490 14.17451 3553 ft 264 kts 136°
2026-04-27 13:35 36.10008 14.18748 3312 ft 261 kts 155°
2026-04-27 13:35 36.08422 14.19819 3197 ft 259 kts 148°
2026-04-27 13:35 36.07020 14.21202 3170 ft 259 kts 136°
2026-04-27 13:36 36.05778 14.22798 3087 ft 260 kts 135°
2026-04-27 13:36 36.04503 14.24385 3034 ft 259 kts 136°
2026-04-27 13:36 36.03231 14.25947 3013 ft 256 kts 136°
2026-04-27 13:36 36.01970 14.27506 3010 ft 257 kts 135°
2026-04-27 13:37 36.00722 14.29093 2992 ft 256 kts 135°
2026-04-27 13:37 35.99489 14.30659 2993 ft 253 kts 135°
2026-04-27 13:37 35.98249 14.32200 2995 ft 252 kts 136°
2026-04-27 13:37 35.97004 14.33758 3006 ft 260 kts 134°
2026-04-27 13:38 35.95752 14.35348 2994 ft 251 kts 135°
2026-04-27 13:38 35.94531 14.36801 2732 ft 245 kts 138°
2026-04-27 13:38 35.93333 14.38259 2421 ft 241 kts 136°
2026-04-27 13:38 35.92211 14.39699 2110 ft 222 kts 134°
2026-04-27 13:39 35.91174 14.41014 1820 ft 207 kts 136°
2026-04-27 13:39 35.90180 14.42237 1549 ft 197 kts 136°
2026-04-27 13:39 35.89252 14.43411 1374 ft 184 kts 135°
2026-04-27 13:39 35.88397 14.44513 1267 ft 174 kts 134°
2026-04-27 13:40 35.87584 14.45586 1100 ft 169 kts 134°
2026-04-27 13:40 35.86752 14.46534 804 ft 156 kts 137°
2026-04-27 13:40 35.86063 14.47366 517 ft 124 kts 137°
2026-04-27 13:40 35.85505 14.48047 281 ft 106 kts 136°
2026-04-27 13:41 35.85185 14.48439 268 ft 90 kts 137°
2026-04-27 13:41 35.84829 14.48875 255 ft 48 kts 139°
2026-04-27 13:41 35.84664 14.49093 255 ft 17 kts 137°
2026-04-27 13:41 35.84594 14.49170 255 ft 11 kts 137°
2026-04-27 13:42 35.84546 14.49225 255 ft 17 kts 134°
2026-04-27 13:42 35.84422 14.49362 255 ft 15 kts 137°
2026-04-27 13:42 35.84452 14.49433 255 ft 14 kts 333°
2026-04-27 13:42 35.84454 14.49319 255 ft 14 kts 245°
2026-04-27 13:43 35.84392 14.49252 255 ft 10 kts 196°
2026-04-27 13:43 35.84334 14.49233 255 ft 8 kts 195°
2026-04-27 13:43 35.84285 14.49232 255 ft 6 kts 158°
2026-04-27 13:43 35.84253 14.49263 255 ft 6 kts 135°
2026-04-27 13:44 35.84224 14.49298 255 ft 6 kts 135°
2026-04-27 13:44 35.84206 14.49313 255 ft 3 kts 208°
2026-04-27 13:44 35.84201 14.49307 255 ft 0 kts 225°